Theta_e
311 310 310 311 311 310 311 310 310 310 310 317 318 320 322 322 328 329 331 329 329 328 326 326 324 323 320 317 315 312 310 309 309 308 308 308 309 309 308 307 305 304 303 303
310 313 312 311 312 313 313 311 311 309 310 316 316 317 317 319 322 327 327 326 326 327 325 325 324 323 321 319 316 313 310 310 309 309 308 308 309 308 308 307 305 304 303 302
313 313 311 313 312 310 310 311 310 311 309 313 315 313 315 315 314 317 322 322 323 325 326 324 322 321 322 319 316 314 311 310 309 309 308 308 309 308 307 307 305 304 302 302
311 311 311 312 312 309 311 309 310 310 311 313 310 312 310 312 314 311 314 318 326 323 324 323 322 320 319 321 317 315 312 310 310 309 308 308 309 308 308 307 306 303 302 301
310 312 312 312 312 310 310 309 309 310 310 308 309 311 311 308 312 313 311 311 318 319 323 323 322 321 320 322 318 315 312 310 310 310 309 309 308 309 309 308 306 304 302 301
309 308 310 311 310 310 309 309 307 306 308 310 309 311 313 308 309 312 312 311 310 317 319 323 322 321 320 318 319 315 312 311 310 309 309 308 309 309 309 308 306 304 302 302
307 309 309 309 311 309 307 308 310 312 309 312 307 307 312 309 305 309 310 309 308 307 315 320 318 317 314 315 314 314 313 310 310 309 309 310 310 310 309 307 306 304 303 303
308 307 309 309 311 312 310 308 309 312 309 307 306 311 311 307 308 308 307 306 306 305 313 317 317 316 314 312 312 312 313 310 310 310 310 309 308 308 308 307 305 303 303 303
308 307 307 309 309 308 309 311 306 306 305 307 306 304 304 304 305 309 307 309 309 311 313 314 313 314 312 311 311 312 311 310 310 309 309 308 308 307 306 304 304 304 303 303
306 307 306 309 308 307 307 305 308 306 314 311 308 305 307 306 304 306 309 309 310 311 311 310 309 309 310 310 311 311 311 310 309 308 307 307 306 305 304 304 303 303 302 301
304 305 306 306 308 307 307 307 304 304 305 311 308 308 302 306 305 305 306 308 311 310 309 308 306 307 308 309 310 310 309 309 307 305 305 305 303 303 303 302 302 301 300 298
303 303 306 305 304 305 305 306 303 307 308 302 302 304 303 304 302 303 304 306 308 308 307 306 306 307 307 308 308 308 307 306 305 304 303 303 302 302 301 300 298 297 295 292
303 303 305 307 304 304 306 306 304 302 302 304 305 308 301 302 306 307 305 305 305 305 304 303 304 305 306 306 306 305 305 304 303 303 303 301 300 299 297 295 292 290 290 289
304 302 304 308 309 303 304 304 304 304 304 305 303 305 304 302 301 303 306 304 302 302 302 301 301 301 303 304 304 303 303 303 302 302 300 298 296 294 291 290 289 289 289 288
302 304 302 302 302 302 302 302 301 301 303 306 305 303 306 302 301 301 302 302 301 300 300 300 298 296 298 300 301 301 301 301 300 298 296 292 290 290 289 289 289 288 287 287
300 303 302 303 302 301 302 301 301 300 301 301 302 303 302 301 299 302 303 303 302 300 300 298 297 295 296 297 298 298 298 297 297 294 291 290 289 289 288 288 287 287 287 286
302 302 302 305 302 302 306 306 301 301 299 301 302 303 301 301 300 300 300 302 302 300 298 297 296 295 295 296 297 296 296 294 293 290 289 289 289 288 287 287 287 286 286 286
300 300 300 303 303 308 306 304 304 304 303 300 300 300 299 299 298 299 299 300 299 299 298 296 294 294 294 294 294 294 292 291 290 289 289 288 287 287 287 286 286 286 285 285
298 300 304 306 305 306 306 306 306 306 307 303 302 303 300 301 300 300 300 299 299 297 296 295 295 294 293 293 293 291 289 289 289 288 288 287 287 286 286 286 285 285 285 285
298 298 302 303 307 309 307 306 304 304 306 303 303 302 302 301 304 302 298 299 297 297 296 294 295 294 293 291 291 289 288 289 289 288 287 287 286 286 285 285 285 284 284 284
302 301 303 304 305 304 304 303 302 309 305 303 302 301 300 302 301 299 298 298 297 296 294 293 291 290 290 290 289 289 289 289 288 287 286 286 285 285 285 284 284 284 284 283
305 305 304 302 305 307 302 302 306 304 301 302 302 301 299 298 299 299 297 295 292 291 291 290 289 289 290 289 289 288 288 288 287 286 286 285 285 285 284 284 284 283 283 283
304 304 305 304 305 304 301 304 301 299 302 302 301 300 299 300 299 297 295 292 289 289 289 289 288 288 288 289 289 288 287 287 286 286 285 285 284 284 284 283 283 283 282 282
301 302 303 304 303 303 302 301 299 299 300 300 299 300 299 300 298 296 292 289 287 287 287 288 287 287 287 288 288 289 286 286 286 285 284 284 283 283 283 283 282 282 282 281
301 301 303 305 304 303 302 301 301 300 298 299 299 299 299 298 297 294 291 288 287 287 287 287 287 286 286 287 287 286 286 286 285 284 284 283 283 283 283 282 282 281 281 281
300 302 302 303 303 303 302 300 301 299 300 299 299 298 297 297 297 293 290 288 287 287 287 287 286 285 285 286 286 285 286 285 285 284 283 283 283 282 282 282 281 281 281 282
Wind_Speed
4 6 2 3 1 2 2 1 1 3 3 2 3 5 5 3 4 3 5 7 7 8 8 17 23 25 25 27 27 27 26 24 24 22 18 15 15 13 10 8 5 4 3 4
6 3 4 3 2 2 0 0 3 4 3 2 2 7 3 5 5 8 11 8 8 5 7 13 22 26 27 29 30 30 29 28 26 24 20 17 14 11 10 9 7 5 4 4
1 4 5 1 2 4 1 1 2 2 5 1 2 6 5 4 4 5 7 5 6 11 10 10 18 25 29 29 32 32 31 29 26 23 21 16 15 11 11 10 8 6 5 4
3 4 4 3 3 2 3 3 2 3 3 3 2 4 6 4 7 6 9 8 11 12 8 8 14 21 28 30 30 33 32 30 26 23 22 20 19 13 11 11 9 7 6 5
4 4 5 2 2 0 4 3 3 2 2 2 1 2 7 1 5 9 12 11 15 13 10 10 15 19 25 29 32 34 32 30 28 25 22 19 16 12 10 11 10 9 8 6
5 3 2 2 3 2 3 1 4 4 2 1 4 5 5 6 7 5 9 11 11 8 8 8 19 24 25 30 33 33 33 27 26 24 21 19 17 15 13 12 13 12 9 8
7 3 2 1 3 3 6 5 3 3 3 5 1 2 8 6 6 4 6 7 4 6 9 12 12 17 21 30 33 35 32 27 24 22 20 17 15 14 12 14 15 13 11 9
3 7 2 1 1 3 2 3 4 4 2 4 1 5 6 4 3 4 6 7 5 7 7 9 12 20 23 28 32 34 33 29 24 22 19 15 13 13 13 14 13 12 10 9
2 5 3 1 1 1 1 2 2 4 1 1 4 8 9 4 8 4 7 7 6 2 4 6 8 18 22 25 30 33 32 28 25 21 17 15 15 15 14 14 12 12 12 12
2 4 1 4 2 1 2 2 1 2 2 4 5 5 6 7 9 5 5 6 6 3 3 5 6 13 17 24 30 30 29 28 23 19 17 17 16 15 15 15 16 15 14 12
1 2 5 2 3 3 1 2 2 2 4 3 2 6 6 5 5 7 7 3 2 0 2 5 6 14 21 25 28 28 26 24 22 21 20 19 18 18 18 17 16 15 14 12
2 3 4 8 2 1 2 3 5 3 4 3 2 7 2 4 6 6 7 4 0 2 4 5 8 15 20 24 25 26 24 24 23 22 22 21 21 20 20 19 17 15 14 12
3 1 4 9 4 0 3 4 3 2 3 6 4 7 2 3 3 0 5 5 3 2 3 4 5 9 16 20 22 23 24 24 24 24 24 24 23 22 20 19 17 14 12 9
1 2 6 6 10 2 5 6 5 5 2 3 8 12 13 7 6 5 4 4 5 5 5 4 4 5 12 16 20 22 23 25 26 27 27 26 23 21 20 18 15 11 8 5
3 4 4 7 12 8 15 15 9 9 8 8 9 9 15 6 6 5 6 7 7 7 7 7 6 6 13 17 20 23 26 27 29 29 27 25 23 20 18 15 12 8 5 2
1 3 0 7 7 5 8 11 12 12 8 8 14 23 14 14 3 4 8 8 10 8 8 8 7 11 15 21 24 25 27 28 30 29 27 25 22 19 15 12 9 5 2 1
4 3 1 5 4 9 6 6 5 5 6 6 7 8 4 4 6 6 7 9 10 8 9 9 10 14 21 25 29 30 31 30 29 28 25 22 19 16 12 9 5 2 1 3
6 4 3 4 6 3 6 2 6 8 7 9 7 8 7 8 6 8 7 7 9 10 11 9 12 17 22 25 27 30 29 28 28 26 22 19 16 13 9 5 3 1 2 5
5 4 3 3 3 7 8 1 3 1 5 5 5 6 4 3 4 4 3 6 8 9 8 14 22 24 23 27 29 30 28 28 26 23 20 16 12 9 6 3 1 2 5 7
5 3 3 2 3 5 4 3 2 2 5 5 4 4 2 1 3 4 3 3 5 12 20 24 28 29 30 31 32 31 29 27 25 21 18 13 9 6 3 1 2 4 7 8
3 2 9 6 5 9 8 4 3 2 6 6 5 5 6 4 5 1 1 3 7 13 18 22 25 25 28 32 32 28 27 25 22 18 15 11 7 4 1 1 4 5 6 9
9 9 5 3 4 8 8 5 7 6 2 6 6 6 7 8 4 3 4 4 7 11 19 23 23 25 31 33 31 28 25 22 19 16 12 8 5 2 2 3 4 5 9 12
4 7 5 10 8 3 7 7 9 4 5 6 5 7 9 6 6 6 5 6 6 15 19 25 27 28 31 30 30 27 23 22 18 14 10 7 4 2 2 3 6 9 9 12
4 4 4 3 8 13 10 6 5 6 8 6 6 5 6 7 6 6 6 6 7 15 17 22 25 23 24 25 25 24 24 19 15 12 9 6 4 2 3 6 7 9 11 12
6 7 5 16 15 8 7 8 8 10 8 7 7 7 9 7 6 7 7 8 11 16 18 23 23 21 22 23 21 22 20 16 14 10 8 5 3 4 5 7 8 10 12 13
9 17 12 19 21 15 11 7 5 7 8 10 9 7 8 9 8 7 7 11 15 16 19 19 21 26 25 24 23 19 15 13 11 9 6 5 5 5 6 9 12 11 12 12
Wind_Direction
351 53 7 258 186 132 344 325 11 265 304 239 222 259 249 175 157 141 221 205 214 201 186 193 198 200 201 198 194 191 186 181 175 168 165 176 175 169 161 158 153 144 142 134
17 2 296 267 254 279 165 7 291 290 323 168 312 269 237 185 223 200 205 210 212 194 183 188 193 197 199 202 199 196 193 185 183 179 174 187 181 178 169 167 167 158 153 140
100 282 326 105 18 13 321 201 307 264 344 41 17 308 277 217 218 223 264 224 194 201 204 189 184 187 198 205 202 200 197 193 186 180 175 175 175 170 177 178 173 162 162 148
281 323 23 358 27 83 340 359 348 319 56 233 57 267 283 258 224 216 229 234 242 207 204 183 187 187 193 200 207 205 201 196 188 183 181 188 183 182 197 187 179 171 162 151
272 343 356 347 323 2 232 4 343 2 118 37 297 71 267 329 254 232 221 218 229 221 198 188 188 189 193 201 205 206 202 197 189 185 189 189 191 194 185 180 179 175 167 155
250 263 198 246 288 252 317 56 42 54 71 8 232 150 276 216 215 253 231 218 210 203 204 196 188 189 190 193 197 202 201 192 194 190 191 189 190 186 175 179 180 177 170 160
329 330 307 297 344 15 50 50 348 358 359 228 326 45 245 259 242 229 258 271 283 213 207 188 175 167 171 179 187 193 189 189 191 192 188 185 185 191 191 186 180 178 172 166
26 335 348 27 261 198 42 140 159 232 223 275 355 241 248 249 269 267 271 278 283 280 216 190 174 171 176 175 180 183 181 182 185 189 185 182 186 184 175 173 179 175 167 161
345 278 317 273 340 59 217 194 200 99 2 12 247 295 299 274 263 299 322 324 325 343 192 175 158 167 172 171 173 178 178 175 178 181 175 172 176 173 171 167 164 157 149 143
268 308 294 305 347 50 178 291 87 10 234 259 283 277 241 305 314 293 270 297 312 339 103 126 130 144 153 161 169 174 172 172 171 170 168 165 164 163 157 150 146 145 143 142
200 148 289 331 202 197 74 300 2 130 167 226 271 270 214 248 287 299 263 252 298 332 142 124 110 133 146 157 159 160 164 161 162 163 160 157 151 147 145 142 139 142 140 139
159 175 273 240 178 230 205 233 169 148 247 204 196 268 218 247 282 279 259 233 176 130 127 108 108 123 131 143 151 156 160 161 160 158 152 147 145 144 140 137 137 137 135 132
178 265 316 342 21 349 230 216 195 145 124 227 189 263 249 278 318 189 209 196 189 128 86 76 108 126 138 149 154 156 158 156 155 152 148 144 143 142 138 136 134 133 129 125
135 213 204 218 247 190 250 222 203 175 155 221 225 280 275 302 314 297 216 186 180 176 163 134 103 106 141 150 154 154 153 154 153 152 148 143 141 139 136 133 131 131 132 136
148 246 209 257 264 260 260 257 221 200 228 216 270 241 265 228 254 260 217 178 172 178 171 168 153 143 144 147 150 152 152 155 154 148 144 139 138 137 135 134 135 134 134 127
161 256 308 284 273 248 263 252 234 231 243 254 264 269 276 256 248 230 217 192 192 187 179 164 157 157 159 156 156 155 153 152 153 147 141 140 140 139 137 134 132 130 123 12
182 194 141 256 334 313 299 243 184 207 198 175 201 248 312 288 270 260 252 208 200 185 172 172 172 170 166 165 161 157 155 153 150 144 142 142 141 137 134 133 131 112 5 332
167 160 174 272 340 265 243 207 210 213 242 217 275 274 263 261 271 270 242 213 188 180 176 172 164 165 167 163 159 152 151 150 147 143 143 143 143 140 138 136 120 21 322 322
189 156 240 243 238 289 282 202 150 165 282 182 221 276 266 258 289 308 225 211 193 178 165 163 169 165 163 160 156 153 152 151 148 146 146 147 148 144 143 138 104 326 320 318
103 89 170 159 215 269 247 177 152 128 291 209 203 262 243 270 15 268 330 195 177 164 161 161 170 167 163 164 162 156 155 156 154 154 151 149 146 143 135 95 330 318 315 312
151 168 213 225 247 277 247 169 151 135 233 176 194 213 178 203 214 229 298 154 167 160 157 158 158 160 164 166 165 157 160 161 157 153 148 145 145 145 149 307 307 299 298 302
175 172 197 162 208 277 162 95 173 215 225 190 197 211 204 227 251 261 236 181 150 147 150 156 152 160 170 169 168 162 161 156 153 151 150 150 152 169 261 283 289 301 310 317
233 205 194 191 206 262 207 204 213 171 191 216 203 221 214 215 225 191 205 176 163 157 156 159 157 160 169 171 173 161 157 157 155 154 155 161 175 217 275 301 315 313 310 311
224 202 225 236 202 236 224 242 241 211 224 225 218 224 196 219 196 197 175 165 155 156 156 156 151 151 158 170 171 165 157 157 156 159 167 176 188 239 290 302 303 295 298 300
215 165 217 256 266 287 248 233 231 237 224 236 226 214 219 204 210 184 179 171 166 161 156 158 152 145 145 157 153 154 154 162 166 168 173 189 229 265 283 286 291 294 295 292
216 236 236 253 258 252 257 234 221 220 226 228 220 220 226 199 199 166 168 166 158 153 148 140 135 135 143 147 147 150 161 173 171 174 191 215 240 263 282 297 303 295 290 291